User: anonymous   Login
Location: ??????
(38.1303°N, 24.0039°E)
Time: 14:33:16
(UTC+00:00)
Language:

IDEFIX/ARIANE 42P - Orbit

View from above orbital plane
View from above orbital plane
View from above satellite
View from above satellite

Ground track
Ground track

The orbit data is extracted from the following two-line orbital elements,

1 27422U 02021B   21264.57244110  .00000008  00000-0  19858-4 0  9994
2 27422  98.4109 214.1915 0011419 314.3568  45.6678 14.29331213 11040
Epoch (UTC): 21 September 2021 13:44:18
Eccentricity: 0.0011419
inclination: 98.4109°
perigee height: 786 km
apogee height: 802 km
right ascension of ascending node: 214.1915°
argument of perigee: 314.3568°
revolutions per day: 14.29331213
mean anomaly at epoch: 45.6678°
orbit number at epoch: 1104

The dashed part of the orbit path shows where the satellite is in the earth's shadow,  

DLR